Theta_e
299 295 293 296 301 301 300 298 297 299 305 302 302 303 305 311 311 310 310 306 302 305 312 319 319 311 305 303 302 301 300 298 299 296 296 296 297 297 297 298 300 299 300 301
296 291 299 303 307 303 301 300 297 299 307 302 301 301 306 309 308 307 308 304 300 304 310 313 309 303 306 302 302 300 300 298 298 298 296 297 296 296 297 299 300 300 299 299
293 298 305 306 306 303 300 298 296 298 301 299 300 297 300 303 305 302 300 300 300 301 307 306 303 301 299 299 300 300 298 298 298 298 299 299 300 299 298 298 298 299 299 299
297 303 303 301 301 304 297 304 302 300 297 292 298 289 292 294 297 296 296 296 297 299 303 303 302 299 299 299 299 299 298 298 298 299 299 299 298 297 298 298 299 299 299 298
295 300 299 299 301 305 300 305 303 300 295 292 291 288 291 290 291 293 294 295 296 297 300 299 298 301 298 298 298 298 297 297 297 298 298 298 297 297 297 299 299 299 298 299
298 304 302 300 302 305 304 298 296 295 292 286 291 291 290 289 291 291 292 294 295 296 297 298 297 298 297 297 297 297 296 296 297 297 298 298 297 297 298 297 297 296 296 296
297 298 301 304 297 300 299 294 284 284 286 285 289 288 292 290 291 293 294 292 293 293 294 296 296 296 297 297 297 298 297 297 297 297 297 297 297 295 296 296 295 294 293 293
291 289 296 302 298 295 295 294 285 281 280 283 288 284 288 290 293 293 294 293 293 293 293 295 296 296 297 297 298 298 297 297 297 296 296 296 297 297 295 294 293 292 293 292
291 290 300 300 300 300 294 291 297 286 283 282 283 285 288 291 291 292 292 292 292 292 293 294 294 294 295 295 296 297 295 294 294 293 293 293 293 293 293 292 292 292 292 295
294 288 295 298 299 298 295 300 289 287 280 278 280 281 284 287 289 291 291 290 291 291 292 292 293 293 293 293 293 294 294 294 293 293 292 292 291 292 291 291 291 291 290 290
292 291 289 292 292 293 291 289 288 287 284 279 278 282 287 289 291 290 291 291 291 291 292 292 292 292 292 292 292 292 293 293 292 292 291 291 291 291 291 291 290 290 289 288
293 288 285 287 292 293 293 289 290 285 283 280 279 282 287 288 292 292 291 292 292 293 293 292 291 291 291 291 291 291 291 292 292 292 291 291 291 290 290 289 289 288 288 288
292 289 282 283 286 289 289 291 289 287 284 280 278 282 289 288 291 292 291 291 292 293 292 291 290 290 289 289 290 290 291 291 291 291 290 290 290 289 289 288 287 287 287 287
295 289 285 282 284 286 283 287 288 286 281 281 281 283 285 287 290 290 290 292 291 292 292 290 289 287 288 288 289 290 290 290 291 290 289 289 289 288 287 287 287 287 286 286
291 287 285 286 288 286 285 286 287 285 284 283 284 284 287 289 290 292 292 291 291 291 291 290 288 287 287 288 288 289 289 289 289 290 289 289 289 287 287 287 287 287 286 286
288 285 285 284 287 287 286 287 287 286 285 285 285 285 289 288 289 290 290 291 291 290 291 290 289 288 288 288 288 289 289 289 289 289 289 289 288 287 286 286 286 286 286 285
286 285 283 281 287 288 285 288 287 287 287 287 283 287 288 287 289 289 290 291 291 290 289 288 288 289 289 289 289 288 288 289 288 288 289 288 287 287 287 286 286 285 285 284
285 286 285 280 284 278 286 289 289 289 290 289 289 289 290 289 288 288 289 290 289 288 288 288 288 288 289 289 289 289 289 288 288 288 288 287 286 286 286 286 285 284 284 283
289 287 282 279 279 284 286 287 286 286 287 291 290 289 289 289 288 287 288 288 287 287 288 288 288 289 288 289 289 289 288 288 288 288 287 287 286 286 286 285 284 284 283 282
289 288 285 280 278 277 283 288 290 286 280 289 291 289 288 288 283 284 286 288 288 289 289 289 288 289 288 289 288 288 288 287 287 288 288 287 286 286 285 285 284 283 283 284
283 282 281 281 277 283 288 289 289 278 281 288 291 289 288 287 287 287 288 288 289 289 289 289 289 288 288 288 288 288 287 287 288 289 288 287 287 286 285 284 282 283 283 283
283 280 279 280 278 279 290 288 283 286 289 289 288 289 289 288 287 288 288 288 289 289 290 289 288 288 288 288 287 287 286 289 289 288 287 286 286 286 287 283 282 282 282 282
282 286 283 284 284 290 290 287 288 290 290 290 290 289 289 287 287 288 288 288 288 288 289 289 288 288 288 288 287 287 288 289 289 287 286 285 285 285 285 282 282 282 283 283
286 288 286 286 287 288 290 289 291 292 291 291 291 289 289 287 288 287 287 287 287 288 288 289 288 288 287 288 289 288 289 289 287 286 285 285 284 286 284 283 283 283 283 284
287 287 286 284 287 286 289 290 292 292 292 292 290 289 288 289 287 287 287 287 287 288 289 289 288 287 288 288 289 289 289 288 287 285 285 284 285 283 282 283 283 285 286 288
288 287 284 285 289 287 286 289 292 291 291 291 289 288 288 289 288 288 287 288 288 288 288 288 288 288 288 288 288 289 289 288 286 285 284 284 284 282 282 282 284 290 291 292
Wind_Speed
5 4 8 4 4 4 3 6 5 2 5 5 9 7 11 8 6 7 8 7 8 7 4 5 7 7 9 9 11 12 11 7 8 3 4 3 4 2 1 3 5 6 5 6
2 7 8 8 8 9 6 6 4 1 2 1 4 9 6 7 6 7 9 8 7 6 7 8 7 6 11 11 11 9 11 9 6 4 3 3 3 2 2 2 4 5 6 6
6 5 7 7 6 12 4 6 4 4 2 3 4 6 6 4 5 3 2 4 4 8 9 7 10 7 7 10 12 12 8 9 6 6 4 4 4 3 2 2 3 5 6 6
5 3 6 2 4 7 6 5 5 6 5 4 2 5 5 3 5 3 5 3 1 2 4 5 9 9 9 8 7 8 8 9 7 8 5 6 5 5 4 3 2 3 5 5
5 3 2 3 4 5 6 5 7 5 4 2 2 2 6 1 5 6 4 3 2 3 4 8 8 10 5 7 6 5 6 6 4 6 4 4 4 2 1 1 2 2 1 3
2 2 2 2 3 3 7 8 9 5 3 2 6 6 6 6 7 4 3 1 4 6 3 6 6 7 6 5 5 5 6 3 3 4 3 4 4 3 2 1 0 2 2 1
4 3 1 1 5 4 5 6 3 2 2 5 3 4 9 5 4 5 7 2 5 5 2 7 9 8 6 6 5 5 6 4 3 5 4 4 4 3 3 3 3 2 1 0
5 4 3 3 4 5 4 7 6 6 5 4 2 7 6 3 4 6 7 5 5 6 6 7 8 8 7 7 6 7 7 5 5 6 6 5 5 3 3 3 2 2 1 0
2 7 9 3 3 7 4 4 3 5 3 3 4 5 4 3 4 4 7 7 6 6 6 8 8 7 7 7 6 7 7 7 6 6 6 6 5 5 4 4 3 2 1 0
5 0 5 6 1 2 4 6 5 2 4 4 3 3 6 5 6 5 5 7 5 5 7 7 7 7 5 6 6 7 7 7 5 5 4 4 4 5 4 4 3 2 1 1
2 5 3 2 2 6 2 2 2 4 3 5 0 6 6 10 10 11 8 8 8 7 7 7 6 5 6 5 6 5 5 5 4 4 3 4 3 4 3 3 2 1 1 2
1 2 1 4 2 0 2 1 4 5 3 3 4 7 2 7 9 9 9 8 7 7 7 6 6 6 5 5 5 4 3 4 3 3 4 4 4 3 2 2 0 1 2 2
4 3 4 3 4 3 2 4 3 5 4 4 6 7 4 4 8 8 10 8 8 8 7 6 6 6 6 5 5 4 4 4 3 4 4 3 2 2 2 1 3 3 3 4
1 0 3 4 5 3 3 3 3 5 4 4 6 4 3 5 9 7 7 8 9 8 8 6 6 5 5 4 4 3 2 2 3 4 4 3 2 1 2 3 3 3 3 5
2 2 2 4 4 2 3 4 6 7 5 6 4 7 6 10 13 12 9 7 8 7 7 6 6 5 4 4 3 3 3 3 3 4 3 2 3 3 3 2 3 4 5 6
1 1 3 3 2 2 4 6 5 5 3 4 4 5 4 4 7 6 9 10 10 6 7 7 6 6 5 3 2 2 2 3 2 1 2 3 3 3 3 4 5 5 6 6
2 2 3 4 4 6 7 6 6 4 4 6 6 9 4 4 6 6 8 10 7 7 7 7 7 5 3 2 2 3 3 2 2 3 3 4 4 4 4 5 5 6 7 5
4 3 2 3 4 2 5 1 1 4 3 3 2 4 4 4 4 5 3 8 8 9 8 7 5 4 2 1 2 1 2 3 3 5 5 5 4 4 4 5 6 6 4 5
1 4 2 2 2 7 2 0 2 2 6 8 6 5 5 5 4 6 4 4 7 8 7 6 4 3 2 1 1 1 2 3 4 7 7 6 4 5 5 6 7 6 4 4
4 4 5 2 2 4 4 1 1 2 6 4 6 6 8 3 3 4 4 6 8 7 6 6 5 3 3 2 1 1 3 4 6 6 7 5 3 4 6 6 6 3 3 6
1 3 4 3 3 9 6 1 1 5 8 2 6 6 7 4 4 3 7 5 6 6 7 6 5 4 2 1 2 3 3 6 6 6 5 4 3 4 6 5 3 3 5 6
7 6 3 2 1 7 5 3 5 6 1 2 3 5 6 5 7 8 7 8 7 7 5 5 3 2 4 2 1 4 5 5 5 5 4 4 4 4 4 5 4 6 6 7
2 6 6 9 8 5 6 3 3 4 4 4 5 4 7 9 7 8 7 7 6 6 4 3 2 3 4 3 2 4 5 4 5 3 4 4 5 5 4 4 5 5 6 5
3 3 3 3 3 8 7 4 4 6 5 4 4 7 8 9 9 7 6 6 5 4 2 2 1 2 4 4 3 4 6 5 3 4 4 4 5 6 5 4 4 4 6 6
4 4 4 6 9 5 8 7 7 5 6 6 6 5 7 11 7 7 6 5 4 3 2 2 2 3 4 4 4 4 5 3 3 3 4 5 3 4 5 4 4 5 6 8
5 8 6 8 7 4 5 2 7 8 8 9 9 6 5 7 9 6 6 5 4 4 1 2 2 2 3 3 4 4 4 2 1 3 4 4 3 4 4 4 6 12 15 18
Wind_Direction
194 164 207 170 196 248 174 136 148 229 181 143 198 210 220 232 244 244 235 245 234 188 136 144 156 129 122 128 140 153 149 158 141 136 136 130 158 157 181 197 194 186 176 171
8 206 219 192 216 200 202 176 179 43 110 121 164 243 235 210 237 217 229 236 220 154 166 150 138 140 159 152 154 156 163 159 162 155 149 137 143 164 148 174 220 208 200 196
174 225 167 183 187 200 189 155 168 160 74 48 98 307 248 223 221 185 41 172 176 176 181 152 154 166 142 160 168 167 162 166 171 150 111 77 70 60 97 207 223 221 209 209
190 288 148 130 220 179 210 165 135 132 123 196 161 259 259 266 235 195 119 108 174 172 160 159 160 165 171 166 155 163 163 169 174 162 159 157 172 170 209 196 206 214 212 220
241 54 164 134 213 134 232 145 160 146 95 115 229 120 260 170 243 215 185 168 249 293 194 181 175 167 143 148 167 161 153 152 158 181 186 158 167 175 121 137 217 231 252 224
276 317 77 115 33 159 143 74 51 53 77 261 214 162 272 200 213 173 181 159 330 319 293 145 121 115 106 100 118 130 136 145 111 145 153 183 193 182 182 223 341 358 358 22
17 323 41 158 76 36 100 90 53 53 207 229 149 140 249 299 247 181 160 108 359 353 145 149 124 112 109 117 109 116 127 108 138 168 184 194 199 178 197 198 198 186 172 93
27 328 7 328 150 183 181 156 156 179 173 206 83 223 252 303 30 91 102 101 63 57 86 95 108 108 111 120 120 115 118 107 87 86 76 83 96 107 101 113 112 112 106 334
90 306 301 220 184 150 183 187 228 67 42 96 212 291 310 71 76 90 109 88 74 75 86 103 103 115 125 115 110 117 106 91 86 95 94 81 86 93 103 97 91 99 101 275
205 152 253 286 179 280 164 178 75 91 216 227 279 277 239 210 192 165 144 127 125 105 98 110 114 116 105 108 114 112 116 124 135 121 114 113 115 107 108 110 119 124 98 30
174 193 200 208 229 175 127 135 128 132 131 156 360 266 214 205 188 180 177 173 163 151 147 141 123 113 113 97 92 95 87 98 110 123 119 117 113 107 101 107 100 62 352 315
124 140 197 187 265 251 133 202 191 120 208 93 136 277 351 252 177 161 173 178 178 170 168 150 138 127 115 110 96 101 107 109 119 129 113 114 120 116 91 85 20 285 290 303
353 0 358 24 18 15 158 238 95 80 73 187 130 264 15 109 146 183 168 178 181 181 160 155 145 145 130 119 114 97 76 79 107 127 129 104 59 45 67 335 321 327 320 301
193 212 169 192 221 179 258 217 152 127 119 176 217 253 226 188 185 188 181 186 185 182 171 158 144 140 127 114 110 122 120 121 104 88 73 45 26 357 319 293 292 289 278 285
77 221 210 246 237 262 259 242 186 197 174 162 238 205 243 203 199 195 186 163 175 178 162 157 149 138 125 138 153 113 89 78 75 81 53 297 272 264 280 293 295 297 298 287
46 278 348 305 335 316 276 265 221 223 177 260 169 252 228 122 113 154 184 175 191 167 151 143 141 149 161 165 158 156 150 149 131 150 266 282 292 291 262 277 284 287 287 285
43 55 43 278 345 331 300 233 202 203 188 160 189 226 164 179 199 196 193 190 175 142 138 146 153 147 146 173 192 218 209 188 223 251 276 272 271 265 267 282 298 292 287 282
132 100 92 253 2 280 248 255 252 228 254 179 155 188 165 120 81 40 8 159 144 138 134 137 141 130 126 84 17 349 224 243 272 280 280 278 271 259 289 300 291 287 273 283
150 120 91 109 211 287 339 151 190 175 279 197 186 145 88 122 123 28 16 105 125 125 142 145 141 129 91 67 265 275 326 297 287 280 279 280 262 274 291 291 289 283 269 279
74 68 118 113 114 234 248 262 4 64 297 197 153 154 153 138 96 260 119 101 110 123 127 133 132 145 167 211 158 219 277 289 283 287 284 288 272 270 287 288 289 265 260 276
90 22 164 146 226 286 243 244 27 80 245 31 152 155 146 157 183 141 123 95 121 140 142 140 151 168 224 252 230 284 296 287 285 296 297 288 286 291 282 284 270 275 293 293
174 144 186 85 100 292 169 95 177 215 353 63 101 148 136 112 107 121 130 145 147 140 142 167 158 262 286 304 271 288 288 276 300 308 304 300 303 299 300 292 296 300 295 296
247 185 182 177 214 245 210 185 159 169 157 167 130 139 131 128 142 150 152 154 156 160 154 143 186 298 313 320 250 276 271 307 311 310 304 309 309 306 306 303 304 305 298 293
245 161 195 64 265 234 241 230 190 191 181 132 130 139 145 140 145 147 149 147 145 159 168 153 163 303 305 318 317 249 291 300 298 298 312 307 310 307 315 305 290 288 293 292
217 130 184 264 278 281 262 218 189 152 119 115 107 136 135 137 148 150 142 149 164 166 182 181 235 257 275 312 307 302 299 294 302 310 303 305 298 301 301 292 281 290 270 280
192 195 175 230 224 166 237 228 156 145 166 160 132 111 120 146 145 129 147 170 166 182 197 241 236 272 290 301 299 314 330 353 355 317 312 296 287 301 299 297 302 310 315 316